カタログに戻る

DELTA 1 DEB

運用中UNKNOWN
NORAD 10650·DEBRIS·🇺🇸 United States

打ち上げ Jul 29, 1976 から Vandenberg Space Force Base

Loading…

次のパス (今後24時間)

TLE

最新Source: Space-Track

元期: Sep 13, 2026, 04:31 UTC

1 10650U 76077L   26256.18862922  .00000082  00000-0  19402-2 0  9996
2 10650 102.0895 334.3189 0437017 235.5247 147.5132 11.57492062121307

AllMySatでDELTA 1 DEBをリアルタイム追跡

Download on the App Store